Temp
21 21 20 20 19 19 20 20 19 18 18 17 17 15 15 14 15 17 17 15 16 17 15 15 15 15 16 17 16 17 17 17 17 18 18 18 18 18 19 18 18 18 19
22 20 20 19 18 18 19 19 19 19 17 18 17 15 15 14 15 15 14 14 14 14 14 14 15 15 15 15 16 16 16 16 16 17 17 18 18 18 18 18 18 18 18
21 20 19 19 18 19 19 19 20 20 19 16 17 16 15 14 14 14 14 14 14 14 14 14 14 14 14 15 15 15 16 16 16 16 16 17 18 19 19 18 18 18 19
21 20 19 19 18 19 19 19 20 20 19 18 15 14 14 14 14 14 15 14 14 14 14 14 14 14 13 14 14 14 14 15 15 16 16 17 17 17 18 18 19 18 18
20 19 19 18 18 18 20 20 20 19 17 16 16 16 15 14 15 14 15 14 13 13 13 13 13 13 13 14 14 14 14 14 15 15 16 16 16 16 17 17 17 18 17
19 19 18 18 18 19 20 20 20 19 18 18 16 15 14 14 15 15 14 15 14 13 13 13 14 13 13 13 13 13 13 14 14 14 15 15 14 15 15 16 16 16 16
19 18 18 18 18 19 19 19 19 18 16 16 15 14 14 14 14 14 14 14 14 13 13 12 14 13 12 12 13 13 12 12 12 13 14 14 14 14 14 15 15 15 15
18 18 17 17 17 18 18 18 18 17 15 15 14 14 14 13 13 13 13 14 14 13 13 12 13 12 12 12 12 13 12 12 13 13 13 13 13 13 14 15 15 15 15
18 17 17 17 18 18 18 18 17 16 15 14 13 13 13 13 13 13 13 13 13 13 13 13 13 12 13 13 13 12 11 12 12 13 13 13 13 13 14 14 14 14 15
16 16 16 17 17 17 16 15 15 15 15 14 14 13 13 13 13 13 13 13 13 13 14 13 14 13 13 12 13 12 12 12 12 12 13 13 13 13 13 13 14 14 14
16 16 16 17 17 17 16 16 16 15 15 14 13 14 13 13 14 14 14 13 13 13 13 13 13 13 12 12 13 13 12 11 12 12 13 14 14 14 13 13 13 13 13
16 16 17 17 17 16 16 16 16 16 15 14 14 14 14 13 14 14 14 13 13 13 13 12 12 12 12 12 13 12 12 12 12 13 13 14 14 14 14 13 13 13 13
19 19 17 16 16 14 15 15 15 14 14 14 14 15 15 15 15 14 14 13 13 13 13 13 12 12 13 13 12 12 12 12 12 12 13 14 14 13 13 13 13 12 12
17 16 16 16 15 14 15 15 14 15 15 15 15 16 16 16 15 15 14 13 13 12 12 12 12 12 12 12 13 12 12 12 12 12 13 13 13 13 12 12 12 12 12
15 16 15 15 15 15 15 15 15 15 15 15 15 15 15 15 15 14 13 13 12 13 13 12 12 12 13 13 13 13 13 13 12 12 12 12 12 12 12 12 12 12 12
16 16 16 16 17 16 16 16 16 16 16 16 15 15 15 15 14 14 14 13 13 13 13 12 12 12 13 13 14 14 13 13 13 13 12 12 12 12 12 12 12 12 12
16 18 17 17 17 17 17 16 16 16 16 16 16 16 15 15 15 14 14 13 13 13 12 12 12 12 13 13 13 13 13 13 13 13 13 12 12 12 12 12 12 12 12
16 17 17 17 17 17 17 17 16 16 16 15 15 15 15 15 15 14 14 14 13 13 13 12 13 13 13 13 13 13 13 13 13 13 12 12 12 11 11 12 12 12 12
15 16 16 16 16 16 16 16 15 15 16 15 15 15 14 14 14 14 14 14 13 13 13 12 13 13 13 13 13 13 13 13 13 12 12 12 12 12 11 11 12 12 12
15 16 16 16 16 15 15 15 14 14 14 14 14 14 13 13 14 13 13 13 12 12 12 12 13 13 13 14 14 13 13 13 12 12 12 12 12 12 12 11 11 12 12
15 14 14 14 13 14 13 13 13 13 12 12 13 12 11 11 12 11 11 11 12 11 11 12 12 13 13 13 13 12 12 13 12 12 12 12 12 12 12 11 11 11 11
14 14 14 13 13 13 12 12 11 10 10 10 10 10 10 9 10 10 10 10 10 10 10 10 11 11 11 11 11 11 10 10 11 11 11 11 12 12 12 12 12 12 12
13 14 14 13 13 13 12 12 11 10 9 9 9 9 9 9 9 8 8 8 8 8 8 8 9 9 9 9 9 9 9 9 9 11 9 9 10 11 12 11 12 12 12
12 12 12 12 12 11 11 11 10 11 10 10 9 9 8 8 7 7 7 7 7 7 7 7 7 8 6 7 7 5 6 8 8 9 9 8 9 9 10 11 11 12 12
10 10 10 10 10 9 9 8 8 8 8 8 8 8 7 7 7 7 6 5 5 5 5 4 4 4 4 4 4 3 4 5 6 7 8 8 8 8 8 8 9 9 10
9 8 8 8 8 8 8 8 8 7 7 7 7 7 7 6 7 6 6 6 5 4 4 4 3 3 2 2 2 3 3 3 3 3 4 6 7 7 8 8 8 8 9
Height
1534 1537 1538 1540 1540 1541 1541 1542 1542 1541 1541 1541 1541 1542 1542 1541 1540 1539 1538 1538 1537 1536 1535 1535 1534 1533 1532 1532 1533 1534 1536 1537 1536 1535 1534 1532 1531 1530 1529 1528 1528 1527 1527
1532 1536 1537 1539 1540 1540 1540 1540 1540 1540 1540 1540 1540 1541 1541 1540 1539 1538 1537 1538 1537 1537 1537 1536 1534 1533 1532 1530 1531 1530 1532 1531 1532 1533 1532 1531 1531 1530 1529 1528 1527 1526 1526
1528 1532 1534 1536 1539 1538 1539 1539 1539 1540 1540 1540 1540 1540 1540 1539 1539 1538 1537 1537 1536 1537 1537 1536 1535 1534 1532 1531 1530 1529 1528 1529 1530 1529 1528 1529 1529 1527 1527 1527 1527 1526 1524
1525 1529 1531 1534 1537 1537 1537 1538 1538 1539 1538 1538 1539 1540 1540 1539 1538 1537 1536 1536 1536 1536 1536 1535 1534 1533 1532 1531 1531 1529 1528 1527 1527 1528 1527 1526 1528 1525 1524 1525 1525 1523 1522
1524 1527 1530 1534 1535 1535 1536 1536 1537 1538 1538 1538 1537 1538 1538 1538 1537 1535 1535 1536 1536 1535 1534 1534 1533 1532 1531 1529 1529 1528 1527 1526 1526 1526 1526 1526 1523 1524 1524 1523 1523 1523 1522
1523 1525 1528 1530 1532 1534 1535 1536 1536 1536 1536 1536 1536 1537 1536 1536 1536 1535 1534 1534 1535 1535 1532 1531 1530 1530 1529 1528 1527 1526 1525 1524 1524 1523 1523 1524 1523 1521 1522 1523 1522 1522 1522
1521 1524 1525 1527 1530 1532 1533 1535 1535 1535 1535 1535 1535 1536 1535 1533 1533 1533 1533 1531 1532 1533 1532 1530 1529 1531 1527 1525 1525 1524 1523 1522 1523 1522 1522 1522 1521 1519 1521 1521 1521 1521 1520
1520 1522 1525 1527 1529 1531 1532 1532 1533 1534 1534 1534 1533 1533 1532 1532 1532 1531 1531 1530 1530 1531 1531 1529 1527 1527 1524 1523 1523 1521 1521 1521 1521 1520 1520 1519 1520 1519 1519 1520 1520 1519 1519
1515 1517 1520 1523 1525 1527 1528 1530 1530 1530 1530 1531 1531 1531 1530 1530 1530 1528 1528 1528 1528 1528 1529 1527 1526 1524 1522 1521 1520 1519 1518 1519 1519 1518 1518 1516 1516 1515 1516 1516 1517 1517 1517
1512 1515 1518 1522 1525 1527 1528 1528 1528 1528 1528 1529 1531 1529 1528 1528 1527 1526 1525 1525 1525 1526 1526 1525 1523 1522 1520 1519 1518 1516 1516 1516 1516 1515 1515 1514 1514 1514 1514 1513 1514 1515 1515
1510 1515 1518 1521 1523 1524 1526 1526 1525 1526 1526 1526 1525 1525 1526 1525 1524 1523 1523 1522 1521 1521 1521 1522 1519 1520 1519 1516 1515 1512 1512 1512 1512 1512 1512 1512 1512 1512 1512 1511 1512 1513 1512
1503 1514 1522 1523 1521 1521 1522 1524 1525 1522 1522 1523 1522 1522 1522 1522 1522 1522 1521 1520 1519 1518 1518 1519 1516 1516 1515 1513 1512 1510 1510 1510 1510 1510 1510 1510 1511 1512 1510 1509 1509 1510 1509
1497 1499 1511 1519 1523 1521 1521 1521 1520 1520 1519 1521 1520 1520 1520 1519 1519 1518 1518 1518 1517 1516 1515 1514 1514 1514 1512 1510 1510 1509 1509 1508 1509 1508 1508 1509 1508 1507 1508 1507 1506 1506 1506
1501 1496 1506 1515 1520 1519 1519 1517 1519 1519 1519 1520 1519 1520 1521 1519 1515 1515 1516 1515 1515 1514 1513 1512 1512 1512 1510 1509 1507 1507 1507 1507 1506 1506 1505 1505 1505 1505 1504 1504 1504 1504 1503
1503 1502 1508 1513 1516 1517 1516 1517 1519 1519 1519 1518 1517 1517 1517 1517 1515 1513 1513 1512 1512 1511 1511 1510 1509 1507 1507 1506 1505 1504 1503 1503 1503 1502 1502 1503 1503 1503 1502 1502 1501 1501 1500
1503 1502 1507 1512 1514 1514 1515 1515 1516 1516 1515 1514 1514 1513 1514 1513 1512 1512 1511 1510 1509 1509 1508 1507 1505 1505 1504 1503 1502 1502 1501 1500 1500 1499 1498 1499 1499 1499 1499 1499 1498 1498 1497
1499 1505 1509 1512 1514 1514 1513 1514 1515 1513 1512 1511 1510 1509 1508 1508 1507 1506 1505 1505 1504 1504 1503 1503 1502 1501 1500 1500 1499 1498 1497 1497 1496 1495 1495 1495 1494 1494 1494 1494 1494 1494 1493
1501 1505 1509 1511 1512 1512 1512 1512 1511 1511 1509 1507 1507 1505 1504 1504 1503 1501 1500 1500 1498 1498 1498 1497 1496 1496 1495 1495 1494 1494 1493 1493 1492 1491 1489 1489 1489 1489 1489 1489 1489 1489 1489
1506 1508 1508 1510 1509 1509 1509 1508 1507 1506 1505 1503 1501 1500 1499 1498 1497 1497 1495 1494 1494 1493 1492 1492 1491 1491 1489 1489 1488 1488 1488 1487 1487 1487 1486 1485 1485 1484 1484 1484 1484 1485 1484
1508 1507 1506 1506 1505 1506 1504 1504 1503 1501 1498 1498 1496 1494 1493 1491 1491 1490 1490 1490 1490 1490 1489 1489 1488 1487 1486 1486 1485 1483 1482 1481 1481 1480 1480 1480 1479 1478 1477 1477 1478 1478 1478
1507 1504 1503 1502 1501 1500 1500 1500 1498 1497 1496 1493 1493 1489 1489 1487 1486 1486 1485 1484 1482 1482 1483 1482 1481 1479 1478 1478 1475 1475 1474 1475 1474 1474 1473 1472 1472 1472 1471 1471 1472 1472 1472
1504 1501 1499 1498 1499 1499 1499 1498 1495 1494 1491 1490 1490 1487 1485 1483 1483 1481 1479 1478 1476 1477 1477 1475 1474 1473 1471 1470 1468 1467 1467 1465 1466 1464 1463 1466 1464 1465 1465 1465 1465 1465 1465
1500 1499 1498 1497 1497 1497 1496 1495 1492 1491 1489 1487 1484 1482 1480 1479 1478 1476 1475 1474 1472 1470 1469 1468 1467 1465 1464 1462 1462 1460 1461 1458 1456 1456 1456 1453 1454 1456 1456 1457 1457 1457 1458
1499 1497 1496 1496 1495 1494 1494 1491 1490 1489 1487 1486 1484 1482 1479 1476 1474 1472 1471 1469 1468 1466 1464 1462 1460 1456 1458 1456 1454 1453 1451 1449 1449 1450 1449 1447 1446 1444 1447 1447 1448 1448 1449
1496 1496 1496 1495 1494 1493 1492 1490 1489 1487 1485 1483 1481 1480 1479 1477 1475 1473 1471 1469 1467 1464 1462 1460 1458 1455 1455 1454 1449 1447 1444 1441 1440 1440 1440 1439 1439 1437 1437 1437 1437 1438 1439
1497 1496 1495 1494 1493 1492 1491 1489 1487 1486 1484 1482 1480 1479 1476 1475 1473 1471 1469 1467 1464 1462 1460 1458 1455 1452 1450 1449 1444 1442 1439 1436 1434 1432 1429 1429 1429 1429 1428 1426 1426 1427 1427
Wind_Speed
17 10 13 12 13 6 5 4 5 3 1 2 1 1 3 5 7 6 5 8 9 7 7 10 8 8 9 6 5 5 6 8 12 13 16 13 14 19 21 10 11 12 10
16 15 14 12 9 9 6 3 2 1 2 2 2 3 3 4 8 7 6 7 10 10 8 7 7 6 6 4 4 5 6 11 9 13 10 11 11 11 10 9 12 11 9
22 21 15 16 12 9 5 3 2 1 2 2 2 2 3 3 6 6 5 4 1 3 11 9 9 11 6 7 8 8 9 8 6 9 12 10 13 13 11 7 10 12 6
22 20 20 15 15 10 8 5 2 1 2 2 3 4 3 5 3 4 7 9 7 2 4 9 10 11 10 11 7 6 8 8 5 9 10 9 11 9 5 9 8 6 9
18 21 20 17 17 14 8 5 2 2 2 4 4 4 3 4 5 8 9 5 8 11 6 6 8 13 13 13 11 11 10 9 8 7 9 8 12 10 9 8 8 13 8
22 22 20 24 20 14 8 4 3 3 4 4 3 3 3 4 9 11 13 10 4 10 11 10 7 13 12 12 14 10 8 7 6 6 8 8 8 8 9 10 7 7 6
23 22 23 22 17 11 7 4 4 4 5 5 4 5 5 8 12 12 10 8 9 5 13 13 6 6 9 15 16 14 4 8 7 5 4 7 10 7 8 11 7 8 8
24 23 22 17 13 10 7 6 5 5 6 7 6 7 8 9 10 12 12 9 6 3 12 17 13 9 13 15 15 9 6 7 8 9 7 10 12 12 14 11 8 9 9
25 25 19 16 13 10 7 6 6 5 6 7 7 8 9 7 11 12 13 12 7 5 13 17 18 11 15 14 15 7 5 7 8 9 12 12 10 11 10 9 7 9 9
22 18 15 13 10 7 5 6 7 7 5 5 8 10 9 11 12 11 11 11 7 7 11 14 17 15 16 17 17 12 7 9 12 12 11 7 5 6 6 6 9 10 6
17 14 14 13 10 7 8 9 8 7 7 9 11 10 11 9 9 11 11 9 9 9 11 7 15 11 14 20 20 14 12 13 13 11 5 7 9 7 8 9 13 13 11
15 12 10 9 8 8 7 7 7 7 8 8 8 7 6 11 11 11 8 10 10 11 11 6 14 14 18 19 17 13 10 8 5 3 9 8 9 7 9 12 17 15 10
16 13 10 12 8 10 9 6 7 7 4 6 7 12 11 13 12 9 11 12 9 9 8 7 12 15 15 13 10 9 12 7 3 9 10 9 10 12 16 20 14 9 9
10 9 12 8 9 9 7 6 8 5 7 11 10 10 10 10 11 13 13 8 7 10 8 9 11 11 10 10 11 7 6 3 6 13 15 11 9 11 11 9 11 8 10
11 8 7 5 7 8 7 5 8 10 13 14 13 12 11 8 11 7 6 6 7 15 17 17 15 13 15 14 13 13 11 9 11 11 9 11 12 12 12 12 13 11 10
10 6 6 5 10 8 5 10 12 11 11 10 11 14 19 20 20 20 19 19 21 20 20 19 17 13 16 15 13 12 12 15 16 15 12 11 13 13 14 13 13 14 12
4 4 5 7 8 7 8 10 11 12 12 13 13 11 10 10 12 15 17 18 19 20 21 21 21 15 15 17 15 14 14 14 14 15 17 20 20 17 16 15 16 17 16
5 6 6 6 8 8 9 10 11 13 14 12 12 12 15 15 15 14 13 17 21 21 23 23 19 17 17 19 18 16 16 15 15 16 17 16 15 16 16 17 17 17 17
3 3 8 6 7 10 12 12 14 16 17 22 22 20 16 14 20 21 19 18 20 20 18 20 21 21 21 21 18 18 21 22 23 21 20 19 17 16 17 18 19 19 20
8 10 13 15 14 11 12 14 16 19 20 16 16 14 16 16 18 17 23 20 22 27 23 20 21 22 21 22 22 22 24 24 23 23 21 19 17 16 16 21 20 20 20
6 7 11 12 14 15 18 16 16 15 16 17 17 18 17 15 9 11 16 20 21 22 23 21 19 21 22 25 22 19 22 23 23 24 25 26 25 23 21 18 16 17 21
7 9 9 10 12 14 13 14 16 12 14 12 11 11 12 12 9 13 14 12 14 16 18 20 20 21 22 24 28 30 30 25 26 29 26 28 29 25 23 23 21 21 22
5 8 9 10 11 13 10 12 12 12 12 15 17 18 20 19 20 18 19 18 20 21 22 22 22 20 19 20 18 26 26 22 26 23 26 27 16 24 28 29 29 26 26
7 7 8 9 10 11 11 10 11 12 9 11 12 14 16 17 17 17 16 17 16 17 17 19 19 20 20 19 21 22 22 26 25 25 27 31 27 20 23 29 30 30 30
7 8 8 8 8 9 10 10 10 10 10 10 10 11 11 12 12 11 12 12 11 14 13 13 12 14 12 12 15 19 23 26 28 29 27 29 31 27 24 22 30 31 34
7 7 7 7 8 9 9 9 10 10 10 11 10 11 12 14 12 13 15 12 13 18 15 16 17 17 16 10 17 21 26 29 32 35 37 36 32 29 28 27 26 29 33
Wind_Direction
183 189 186 197 217 190 219 192 201 242 336 338 2 315 337 351 333 332 339 336 321 335 356 337 352 353 345 312 282 300 298 301 300 279 280 280 303 314 308 294 282 280 274
196 179 182 189 174 193 208 185 169 96 71 26 346 344 13 323 322 349 9 2 7 5 340 311 301 289 288 274 303 313 311 296 313 326 347 329 315 318 322 319 332 299 285
179 182 201 197 179 206 176 212 174 152 155 283 340 289 272 291 346 360 345 328 330 34 319 327 335 332 308 270 278 262 260 282 308 305 311 294 323 295 296 309 308 305 319
193 189 201 189 192 204 190 197 198 223 197 207 190 248 262 301 352 331 6 358 349 308 338 326 314 317 318 312 299 269 280 286 278 313 313 305 324 359 278 281 272 316 335
190 193 204 179 200 206 206 204 216 202 231 229 244 254 285 19 294 252 317 315 324 324 309 283 318 302 312 310 306 283 284 281 265 261 278 309 307 318 314 288 272 270 306
189 194 195 199 208 206 210 207 229 249 262 266 259 248 278 261 270 273 290 298 259 317 299 310 317 337 295 301 315 300 290 296 304 272 265 283 318 299 292 301 299 295 301
191 198 206 210 210 209 208 223 254 269 278 282 267 254 255 274 289 288 292 297 274 259 306 305 310 299 304 295 306 288 295 305 297 304 285 278 290 299 303 311 301 297 281
190 201 211 211 204 209 214 241 270 279 267 276 276 280 278 269 293 293 298 306 301 289 286 307 307 295 285 292 305 295 281 268 280 281 281 287 282 279 289 296 291 312 328
190 202 208 201 203 209 231 260 275 270 275 290 306 292 288 276 282 293 306 305 295 303 282 302 319 298 309 315 313 284 287 291 275 274 279 295 295 294 287 279 258 281 324
192 201 200 193 201 221 248 262 265 261 265 244 253 277 280 276 277 292 301 300 284 303 296 298 304 300 310 317 318 301 253 275 268 271 272 286 318 337 334 309 272 248 273
183 191 184 188 202 223 247 259 262 274 247 247 266 269 267 272 304 328 307 304 285 260 262 278 308 293 300 309 311 304 272 272 266 267 254 311 298 313 288 276 294 295 245
164 177 198 211 205 229 251 264 274 278 288 291 302 334 294 276 293 327 321 317 308 297 289 254 282 288 296 309 305 302 302 283 226 277 319 300 276 240 255 266 284 300 277
154 157 237 220 226 235 261 273 297 300 340 305 290 296 309 270 290 295 314 327 321 327 326 285 280 296 305 305 310 307 314 278 248 321 291 291 277 264 255 274 274 305 324
219 199 196 221 228 254 274 309 311 334 288 283 285 281 277 287 273 280 291 296 322 326 320 320 313 312 317 320 334 333 339 318 295 288 273 260 273 283 292 295 282 276 292
191 170 207 246 257 286 306 288 252 256 263 264 260 257 250 254 257 268 249 245 281 298 289 293 297 296 300 301 298 294 277 285 286 293 297 284 279 278 273 274 269 278 269
172 185 207 221 262 287 296 297 302 296 296 304 308 275 261 258 263 269 266 269 279 285 285 287 289 279 284 280 284 281 277 277 276 277 282 278 278 277 274 271 271 270 272
149 208 226 238 246 260 265 275 283 298 292 298 302 293 298 311 308 290 277 274 276 279 286 286 279 274 272 278 274 273 275 273 274 271 270 273 278 260 267 272 268 264 265
179 214 203 244 263 269 266 272 278 283 295 304 319 291 289 292 295 294 283 274 276 280 281 280 276 277 267 262 267 271 269 269 268 273 276 278 279 274 269 267 267 267 265
232 239 259 274 261 266 270 282 290 293 283 293 287 289 287 265 271 267 272 275 280 282 281 277 280 281 278 270 271 265 266 267 267 268 260 260 261 264 267 268 267 266 268
276 253 257 262 279 292 288 282 277 284 288 298 293 303 294 299 295 276 270 278 284 280 282 275 271 266 272 279 276 269 271 269 267 272 277 275 273 271 266 257 259 266 267
262 274 278 280 290 290 285 293 295 308 304 300 298 301 315 318 285 262 265 265 292 261 259 260 257 255 260 263 262 265 270 260 265 263 263 265 264 266 266 268 271 263 263
307 320 333 324 310 301 301 307 300 304 305 314 305 318 315 330 314 297 288 277 272 272 272 272 273 278 288 290 275 276 291 275 265 266 273 275 257 251 256 255 261 265 264
335 319 318 324 327 316 311 307 306 313 322 326 323 315 309 304 304 307 311 307 306 306 303 302 299 298 290 283 288 275 283 290 290 294 278 294 270 267 260 254 260 260 262
330 334 329 324 315 320 314 317 318 322 326 322 325 330 337 344 346 348 342 337 333 330 330 324 324 309 316 308 296 310 297 289 283 279 283 275 258 257 264 261 256 255 260
357 350 347 340 335 330 330 332 328 328 328 331 329 329 330 333 334 330 328 332 334 342 341 338 337 343 333 336 304 296 300 296 288 279 282 279 281 265 252 260 264 265 258
4 1 359 353 348 342 342 339 339 337 335 336 332 333 333 333 328 325 326 323 322 335 327 327 326 328 323 326 296 291 292 299 305 301 296 285 279 276 275 265 254 262 264